Location: Paderno d�Adda
(45.6667°N, 9.4333°E)
Time: 20:58:57
(UTC+00:00)

USA 234 - Pass Details

Date: 19 September 2020
Orbit: 1102 x 1106 km, 123.0° (Epoch: 16 October)

Event Time Altitude Azimuth Distance (km) Brightness Sun altitude
Rises 21:17:16 0° 53° (NE) 3,926 6.2 -36.5°
Enters shadow 21:18:10 - 52° (NE) 3,584 6.0 -36.6°
Exits shadow 21:24:45 44° 10° (N) 1,493 4.1 -37.3°
Maximum altitude 21:26:04 50° 336° (NNW) 1,384 3.9 -37.4°
Drops below altitude 10° 21:32:19 10° 264° (W) 2,962 5.7 -38.0°
Sets 21:34:52 0° 259° (W) 3,919 6.4 -38.3°
